Starlink 35613

operational
NORAD ID: 66097 Int'l Des: 2025-236 Owner: SPXS Country: US Constellation: starlink
NOTLE

About Starlink 35613

Description loading...

Live Position

Loading 3D Globe...

Upcoming Passes

Altitude History

Altitude vs Time

uPlot chart will show altitude changes over time

Two-Line Element Set

1 66097C 25236N 25293.08451389 .00526910 00000+0 80538-3 0 2931
2 66097 53.1610 48.2446 0008573 262.6987 9.8390 16.03066200 11
Epoch: Oct 20, 2025 • Age: 144 hours

Current Status

Altitude 246.1 km
Velocity 7.76 km/s
Sub-Earth Point 17.55°N, 8.36°W
Launch Date Oct 19, 2025
Age 7 days
Type internet

Technical Details

Classification Payload
Mass 575.00 kg
Dry Mass 530.00 kg
Total Mass 575.00 kg
Length 0.30 m
Diameter 4.10 m
Span 29.00 m
Shape Box + pan
Manufacturer SPXS
Bus Type Starlink V2MO
Phase Status In Orbit
Owner/State SPXS/US

Large Constellations

Loading constellations...